Location: ??????
(56.0120°N, 39.1740°E)
Time: 18:39:07
(UTC+00:00)

Okean O Rocket - Pass Details

Date: 14 April 2026
Orbit: 613 x 634 km, 98.0° (Epoch: 19 May)

Event Time Altitude Azimuth Distance (km) Brightness Sun altitude
Exits shadow 18:25:08 12° 184° (S) 1,902 3.7 -14.7°
Maximum altitude 18:29:07 51° 260° (W) 796 2.3 -15.1°
Drops below altitude 10° 18:33:22 10° 336° (NNW) 2,004 5.3 -15.5°
Sets 18:35:38 0° 342° (NNW) 2,911 6.2 -15.7°
